�������l�o���
Date,Time,MP-1(��Sv/h),MP-2(��Sv/h),MP-3(��Sv/h),MP-4(��Sv/h),MP-5(��Sv/h),MP-6(��Sv/h),MP-7(��Sv/h),MP-8(��Sv/h),����,����(m/s),���J
2020/07/22,00:00,0.660,0.942,0.592,1.134,0.810,0.397,0.670,0.630,�k�k��,2.6,�L
2020/07/22,00:10,0.659,0.938,0.589,1.131,0.807,0.396,0.666,0.629,�k,2.3,�L
2020/07/22,00:20,0.655,0.930,0.587,1.124,0.805,0.398,0.666,0.624,�k,1.7,�L
2020/07/22,00:30,0.652,0.926,0.585,1.120,0.799,0.395,0.664,0.625,��쓌,0.8,�L
2020/07/22,00:40,0.652,0.923,0.583,1.115,0.796,0.395,0.664,0.625,�k��,1.2,�L
2020/07/22,00:50,0.649,0.921,0.586,1.112,0.796,0.395,0.662,0.625,�쓌,0.9,�L
2020/07/22,01:00,0.650,0.920,0.583,1.109,0.794,0.395,0.661,0.623,�쓌,1.5,�L
2020/07/22,01:10,0.649,0.919,0.585,1.108,0.793,0.394,0.665,0.622,��쓌,1.4,�L
2020/07/22,01:20,0.648,0.920,0.584,1.107,0.794,0.393,0.660,0.622,��쓌,1.7,�L
2020/07/22,01:30,0.650,0.919,0.582,1.107,0.795,0.392,0.660,0.623,��쓌,2.3,�L
2020/07/22,01:40,0.649,0.918,0.584,1.106,0.792,0.391,0.661,0.622,��,2.3,�L
2020/07/22,01:50,0.647,0.916,0.581,1.108,0.794,0.390,0.661,0.622,��,3.3,��
2020/07/22,02:00,0.648,0.917,0.582,1.105,0.793,0.391,0.661,0.623,��,3.0,��
2020/07/22,02:10,0.646,0.916,0.582,1.106,0.794,0.391,0.661,0.622,-,CALM,��
2020/07/22,02:20,0.647,0.919,0.582,1.109,0.793,0.391,0.659,0.622,��,3.6,�L
2020/07/22,02:30,0.645,0.918,0.581,1.108,0.794,0.390,0.659,0.622,��,3.6,�L
2020/07/22,02:40,0.645,0.918,0.579,1.105,0.793,0.390,0.660,0.622,��,4.1,�L
2020/07/22,02:50,0.647,0.919,0.578,1.105,0.792,0.388,0.658,0.621,��쐼,3.8,�L
2020/07/22,03:00,0.646,0.916,0.580,1.105,0.792,0.391,0.661,0.622,��쐼,3.5,�L
2020/07/22,03:10,0.647,0.913,0.579,1.100,0.787,0.390,0.658,0.621,��,5.6,�L
2020/07/22,03:20,0.642,0.905,0.579,1.091,0.783,0.389,0.655,0.617,��,5.0,�L
2020/07/22,03:30,0.645,0.906,0.580,1.094,0.785,0.389,0.654,0.618,��,6.0,�L
2020/07/22,03:40,0.644,0.908,0.578,1.093,0.785,0.389,0.654,0.620,��,3.1,�L
2020/07/22,03:50,0.644,0.909,0.577,1.097,0.786,0.389,0.656,0.620,��쐼,2.6,��
2020/07/22,04:00,0.642,0.911,0.579,1.095,0.787,0.389,0.657,0.618,���쐼,1.7,�L
2020/07/22,04:10,0.644,0.911,0.576,1.097,0.785,0.388,0.657,0.619,���쐼,1.2,�L
2020/07/22,04:20,0.643,0.911,0.578,1.096,0.788,0.389,0.657,0.618,��,3.1,��
2020/07/22,04:30,0.644,0.914,0.578,1.097,0.788,0.388,0.656,0.620,��,3.4,��
2020/07/22,04:40,0.644,0.913,0.579,1.100,0.789,0.389,0.656,0.619,��,3.8,��
2020/07/22,04:50,0.643,0.911,0.578,1.099,0.788,0.388,0.656,0.619,��,3.1,�L
2020/07/22,05:00,0.642,0.912,0.579,1.102,0.788,0.389,0.657,0.619,��,3.6,�L
2020/07/22,05:10,0.643,0.914,0.578,1.101,0.788,0.389,0.657,0.620,��쐼,3.0,��
2020/07/22,05:20,0.645,0.913,0.579,1.101,0.787,0.388,0.658,0.619,��쐼,4.3,��
2020/07/22,05:30,0.644,0.913,0.578,1.100,0.789,0.389,0.657,0.619,��,4.7,��
2020/07/22,05:40,0.645,0.912,0.579,1.098,0.790,0.389,0.658,0.621,��,3.0,�L
2020/07/22,05:50,0.644,0.913,0.579,1.099,0.789,0.390,0.657,0.619,��,1.2,��
2020/07/22,06:00,0.645,0.913,0.579,1.101,0.789,0.389,0.658,0.620,���쐼,1.1,��
2020/07/22,06:10,0.644,0.913,0.579,1.102,0.791,0.388,0.657,0.620,���k��,2.0,��
2020/07/22,06:20,0.646,0.914,0.580,1.102,0.790,0.388,0.659,0.621,�k�k��,1.7,��
2020/07/22,06:30,0.646,0.913,0.580,1.102,0.791,0.386,0.658,0.620,�k��,1.9,�L
2020/07/22,06:40,0.645,0.911,0.577,1.101,0.790,0.388,0.657,0.620,�k�k��,1.5,��
2020/07/22,06:50,0.644,0.912,0.578,1.100,0.791,0.388,0.658,0.621,�k�k��,2.3,��
2020/07/22,07:00,0.642,0.913,0.575,1.103,0.791,0.386,0.657,0.620,�k�k��,2.9,��
2020/07/22,07:10,0.642,0.911,0.576,1.102,0.792,0.386,0.658,0.621,�k�k��,2.0,��
2020/07/22,07:20,0.641,0.910,0.575,1.106,0.789,0.387,0.658,0.619,�k,1.7,��
2020/07/22,07:30,0.641,0.913,0.574,1.101,0.790,0.387,0.657,0.620,�k�k��,2.0,��
2020/07/22,07:40,0.642,0.913,0.575,1.102,0.790,0.386,0.656,0.621,�k,2.0,��
2020/07/22,07:50,0.642,0.913,0.573,1.103,0.789,0.386,0.658,0.620,�k,3.0,��
2020/07/22,08:00,0.644,0.911,0.575,1.103,0.789,0.387,0.657,0.619,�k,2.3,��
2020/07/22,08:10,0.644,0.912,0.576,1.105,0.789,0.387,0.657,0.620,�k,2.0,��
2020/07/22,08:20,0.644,0.910,0.573,1.104,0.792,0.385,0.658,0.620,�k,0.8,��
2020/07/22,08:30,0.644,0.910,0.578,1.103,0.791,0.385,0.657,0.622,���k��,0.9,�L
2020/07/22,08:40,0.646,0.912,0.578,1.101,0.790,0.387,0.659,0.620,-,CALM,��
2020/07/22,08:50,0.645,0.911,0.577,1.103,0.792,0.385,0.659,0.621,-,CALM,��
2020/07/22,09:00,0.646,0.913,0.575,1.103,0.792,0.386,0.659,0.620,�쐼,0.8,��
2020/07/22,09:10,0.643,0.910,0.578,1.104,0.789,0.386,0.659,0.620,��,0.8,��
2020/07/22,09:20,0.645,0.911,0.578,1.107,0.792,0.387,0.660,0.620,��,1.5,��
2020/07/22,09:30,0.647,0.911,0.577,1.104,0.791,0.388,0.658,0.622,��,2.0,��
2020/07/22,09:40,0.647,0.910,0.580,1.104,0.792,0.388,0.660,0.620,��쐼,1.7,��
2020/07/22,09:50,0.646,0.914,0.578,1.103,0.794,0.387,0.658,0.622,��쐼,1.9,��
2020/07/22,10:00,0.647,0.912,0.579,1.105,0.793,0.387,0.660,0.621,��,2.0,��
2020/07/22,10:10,0.647,0.913,0.579,1.106,0.792,0.387,0.659,0.622,��,2.3,��
2020/07/22,10:20,0.648,0.914,0.580,1.106,0.794,0.390,0.660,0.622,��쓌,2.5,��
2020/07/22,10:30,0.649,0.915,0.581,1.107,0.795,0.388,0.661,0.621,��,3.3,��
2020/07/22,10:40,0.648,0.918,0.582,1.106,0.796,0.388,0.660,0.623,��쓌,2.9,��
2020/07/22,10:50,0.650,0.919,0.581,1.107,0.796,0.389,0.659,0.622,��,3.4,��
2020/07/22,11:00,0.649,0.916,0.582,1.106,0.796,0.389,0.661,0.622,��,3.6,��
2020/07/22,11:10,0.650,0.918,0.583,1.107,0.794,0.389,0.662,0.623,��쓌,4.7,��
2020/07/22,11:20,0.648,0.916,0.582,1.107,0.797,0.388,0.661,0.621,��,3.7,��
2020/07/22,11:30,0.648,0.918,0.582,1.106,0.797,0.390,0.662,0.622,��,6.6,��
2020/07/22,11:40,0.649,0.919,0.582,1.106,0.796,0.389,0.661,0.622,��,5.5,��
2020/07/22,11:50,0.650,0.922,0.582,1.107,0.798,0.389,0.662,0.622,��,5.3,��
2020/07/22,12:00,0.649,0.925,0.582,1.109,0.798,0.389,0.661,0.623,��,4.9,��
2020/07/22,12:10,0.650,0.923,0.585,1.108,0.799,0.390,0.662,0.623,��,5.9,��
2020/07/22,12:20,0.650,0.924,0.580,1.108,0.799,0.390,0.663,0.623,��,5.0,��
2020/07/22,12:30,0.653,0.926,0.585,1.110,0.802,0.390,0.663,0.623,��,4.2,��
2020/07/22,12:40,0.653,0.925,0.585,1.109,0.802,0.392,0.664,0.622,��,4.3,��
2020/07/22,12:50,0.651,0.927,0.585,1.111,0.801,0.392,0.664,0.623,��,4.4,��
2020/07/22,13:00,0.652,0.928,0.584,1.112,0.802,0.390,0.661,0.623,��,4.1,��
2020/07/22,13:10,0.652,0.927,0.584,1.109,0.801,0.391,0.664,0.623,��,3.7,��
2020/07/22,13:20,0.652,0.926,0.581,1.111,0.801,0.392,0.664,0.623,��,4.4,��
2020/07/22,13:30,0.653,0.924,0.586,1.110,0.802,0.392,0.664,0.623,��,4.0,��
2020/07/22,13:40,0.652,0.927,0.585,1.111,0.802,0.392,0.665,0.624,��쓌,3.3,��
2020/07/22,13:50,0.653,0.928,0.584,1.112,0.803,0.391,0.664,0.625,��,4.3,��
2020/07/22,14:00,0.651,0.928,0.586,1.113,0.802,0.391,0.664,0.625,��쓌,5.2,��
2020/07/22,14:10,0.651,0.926,0.587,1.114,0.801,0.391,0.663,0.624,��쓌,6.2,��
2020/07/22,14:20,0.652,0.929,0.588,1.111,0.803,0.392,0.664,0.623,��,6.8,��
2020/07/22,14:30,0.654,0.929,0.586,1.113,0.805,0.392,0.664,0.624,��쓌,6.8,��
2020/07/22,14:40,0.653,0.930,0.587,1.112,0.805,0.392,0.664,0.624,��쓌,6.0,��
2020/07/22,14:50,0.652,0.928,0.586,1.113,0.804,0.392,0.665,0.624,��쓌,6.3,��
2020/07/22,15:00,0.653,0.929,0.586,1.115,0.803,0.393,0.663,0.624,��쓌,6.2,��
2020/07/22,15:10,0.654,0.932,0.586,1.116,0.804,0.393,0.666,0.625,��쓌,7.9,��
2020/07/22,15:20,0.653,0.932,0.586,1.114,0.805,0.392,0.665,0.625,��쓌,8.9,��
2020/07/22,15:30,0.652,0.933,0.586,1.115,0.801,0.391,0.664,0.626,��,8.6,��
2020/07/22,15:40,0.651,0.932,0.587,1.116,0.805,0.392,0.663,0.625,��쓌,9.3,��
2020/07/22,15:50,0.654,0.933,0.587,1.115,0.805,0.392,0.665,0.625,��쓌,10.9,��
2020/07/22,16:00,0.654,0.934,0.587,1.115,0.805,0.393,0.664,0.625,��쓌,9.4,��
2020/07/22,16:10,0.652,0.934,0.587,1.117,0.805,0.393,0.664,0.625,��,8.4,��
2020/07/22,16:20,0.653,0.934,0.588,1.116,0.805,0.392,0.664,0.624,��,8.2,��
2020/07/22,16:30,0.653,0.935,0.588,1.118,0.805,0.391,0.666,0.624,��쓌,8.9,��
2020/07/22,16:40,0.653,0.934,0.588,1.116,0.804,0.391,0.664,0.624,��,9.3,��
2020/07/22,16:50,0.651,0.931,0.587,1.115,0.803,0.392,0.664,0.623,��쓌,9.3,��
2020/07/22,17:00,0.653,0.935,0.587,1.119,0.806,0.392,0.664,0.624,��쓌,8.5,��
2020/07/22,17:10,0.651,0.937,0.587,1.119,0.805,0.392,0.663,0.625,��쓌,8.8,��
2020/07/22,17:20,0.653,0.935,0.588,1.120,0.805,0.392,0.664,0.624,��,8.0,��
2020/07/22,17:30,0.653,0.934,0.587,1.117,0.805,0.392,0.661,0.625,��,7.3,��
2020/07/22,17:40,0.653,0.934,0.586,1.118,0.804,0.392,0.663,0.624,��,7.8,��
2020/07/22,17:50,0.652,0.934,0.588,1.120,0.805,0.392,0.665,0.625,��,8.2,��
2020/07/22,18:00,0.652,0.933,0.587,1.118,0.805,0.392,0.664,0.625,��,9.4,��
2020/07/22,18:10,0.655,0.932,0.585,1.119,0.805,0.391,0.663,0.625,��,8.9,��
2020/07/22,18:20,0.654,0.935,0.588,1.117,0.806,0.392,0.665,0.626,��,7.6,��
2020/07/22,18:30,0.653,0.935,0.587,1.120,0.806,0.392,0.665,0.627,��,6.8,��
2020/07/22,18:40,0.652,0.935,0.587,1.120,0.807,0.394,0.665,0.626,��,6.3,��
2020/07/22,18:50,0.654,0.936,0.589,1.122,0.808,0.392,0.664,0.627,��쐼,5.1,��
2020/07/22,19:00,0.652,0.936,0.588,1.120,0.807,0.395,0.665,0.626,��,5.7,��
2020/07/22,19:10,0.653,0.934,0.588,1.121,0.808,0.393,0.663,0.627,��,4.1,��
2020/07/22,19:20,0.653,0.934,0.588,1.120,0.807,0.394,0.664,0.626,��,3.2,��
2020/07/22,19:30,0.654,0.935,0.589,1.122,0.806,0.394,0.665,0.625,��,3.8,��
2020/07/22,19:40,0.654,0.935,0.590,1.121,0.806,0.394,0.667,0.627,��,5.4,��
2020/07/22,19:50,0.654,0.935,0.589,1.121,0.808,0.395,0.664,0.628,��,6.2,��
2020/07/22,20:00,0.655,0.935,0.588,1.123,0.806,0.394,0.665,0.628,��,4.8,��
2020/07/22,20:10,0.655,0.936,0.589,1.121,0.808,0.394,0.664,0.626,��,5.1,��
2020/07/22,20:20,0.655,0.936,0.591,1.122,0.808,0.393,0.665,0.626,��,6.2,��
2020/07/22,20:30,0.653,0.938,0.589,1.122,0.808,0.394,0.665,0.627,��,6.4,��
2020/07/22,20:40,0.654,0.936,0.590,1.123,0.807,0.393,0.666,0.628,��,6.1,��
2020/07/22,20:50,0.654,0.934,0.589,1.125,0.806,0.394,0.666,0.628,��,5.6,��
2020/07/22,21:00,0.655,0.934,0.589,1.121,0.806,0.393,0.665,0.625,��,5.5,��
2020/07/22,21:10,0.653,0.934,0.590,1.121,0.807,0.395,0.665,0.630,��,5.0,��
2020/07/22,21:20,0.653,0.934,0.590,1.122,0.807,0.394,0.665,0.628,��,4.3,��
2020/07/22,21:30,0.654,0.936,0.589,1.123,0.808,0.393,0.666,0.625,��,4.0,��
2020/07/22,21:40,0.653,0.936,0.589,1.121,0.807,0.393,0.665,0.628,��쐼,3.3,��
2020/07/22,21:50,0.654,0.934,0.592,1.122,0.806,0.392,0.665,0.627,�쐼,3.0,��
2020/07/22,22:00,0.654,0.934,0.589,1.121,0.806,0.395,0.666,0.628,��쐼,0.8,��
2020/07/22,22:10,0.653,0.936,0.592,1.121,0.807,0.394,0.666,0.627,��쓌,1.4,��
2020/07/22,22:20,0.654,0.933,0.589,1.123,0.807,0.395,0.665,0.627,��쓌,1.2,��
2020/07/22,22:30,0.655,0.935,0.591,1.122,0.806,0.393,0.666,0.627,���쐼,1.5,��
2020/07/22,22:40,0.655,0.936,0.589,1.121,0.808,0.394,0.665,0.628,���k��,2.5,��
2020/07/22,22:50,0.656,0.936,0.589,1.123,0.807,0.393,0.664,0.628,�k��,2.0,��
2020/07/22,23:00,0.655,0.935,0.589,1.123,0.809,0.395,0.667,0.627,�k��,1.5,��
2020/07/22,23:10,0.655,0.936,0.591,1.122,0.807,0.394,0.667,0.627,�k�k��,1.7,��
2020/07/22,23:20,0.654,0.935,0.590,1.123,0.807,0.394,0.666,0.630,�k�k��,1.2,��
2020/07/22,23:30,0.655,0.935,0.590,1.123,0.804,0.392,0.666,0.627,�k�k��,1.2,��
2020/07/22,23:40,0.657,0.936,0.590,1.121,0.808,0.394,0.664,0.627,�k��,1.4,��
2020/07/22,23:50,0.654,0.936,0.590,1.123,0.807,0.393,0.665,0.627,���k��,1.4,��
